Location: Bocianicha
(51.5066°N, 19.2563°E)
Time: 13:53:13
(UTC+00:00)

Cosmos 1340 Rocket - Pass Details

Date: 15 June 2025
Orbit: 492 x 522 km, 81.2° (Epoch: 17 July)

Event Time Altitude Azimuth Distance (km) Brightness Sun altitude
Rises 00:43:51 0° 338° (NNW) 2,641 6.9 -10.7°
Reaches altitude 10° 00:46:12 10° 326° (NW) 1,754 5.8 -10.5°
Maximum altitude 00:49:27 26° 268° (W) 1,039 3.9 -10.2°
Enters shadow 00:51:58 14° 217° (SW) 1,507 4.4 -10.0°
